Regional Weather Roundup
Issued by NWS

Home | Current Version | Previous Version | Graphics & Text | Print | Product List | Glossary On
Versions: 1 2 3 4 5 6 7 8 9 10 11 12 13 14 15 16 17 18 19 20 21 22 23 24 25 26 27 28 29 30 31 32 33 34 35 36 37 38 39 40 41 42 43 44 45 46 47 48 49 50
000
ASUS43 KDTX 301310
RWRMI
MICHIGAN HOURLY REGIONAL WEATHER ROUNDUP
NATIONAL WEATHER SERVICE DETROIT/PONTIAC MI
900 AM EDT TUE SEP 30 2014

NOTE: "FAIR" INDICATES FEW OR NO CLOUDS BELOW 12,000 FEET WITH NO
SIGNIFICANT WEATHER AND/OR OBSTRUCTION TO VISIBILITY.

MIZ047>049-052>055-059>063-066>070-074>076-081>083-301400-
SOUTHEAST LOWER MICHIGAN

CITY           SKY/WX    TMP DP  RH WIND       PRES   REMARKS
ADRIAN         CLOUDY    51  49  92 N6        29.97S
ALMA           CLOUDY    49  47  93 N7        30.01S
ANN ARBOR      CLOUDY    52  48  86 N8        29.95S
BAD AXE        CLOUDY    49  49 100 N14G22    29.96S FOG
CARO           DRIZZLE   50  49  95 N9        29.97S
DETROIT CITY   CLOUDY    54  50  86 N8        29.96R
DETROIT        CLOUDY    53  50  89 N7        29.96R
FLINT          CLOUDY    52  48  86 N10       29.99R FOG
GROSSE ILE     CLOUDY    55  52  88 NW8       29.94S
HILLSDALE      CLOUDY    50  50  98 NW7       29.97F
HOWELL         CLOUDY    49  48  97 N8        29.97S FOG

CITY           SKY/WX    TMP DP  RH WIND       PRES   REMARKS
JACKSON        CLOUDY    50  48  93 N6        29.97S
LAMBERTVILLE   CLOUDY    52  50  93 NW3       29.97S FOG
LANSING        CLOUDY    50  47  89 N8        29.99S
LAPEER         CLOUDY    50  48  92 N6G16     29.96S FOG
MASON          CLOUDY    49  47  93 N6        29.98R
MONROE         CLOUDY    54  52  94 NW8       29.94S FOG
MT. CLEMENS    DRIZZLE   54  52  94 N10       29.92R FOG
PONTIAC        CLOUDY    51  48  89 NW12      29.95R FOG
PORT HOPE        N/A     53  49  86 VRB3      29.94R
PORT HURON     CLOUDY    52  50  93 N6        29.94R FOG
TRI CITIES     CLOUDY    51  44  77 N13       30.00R
TROY           CLOUDY    54  50  86 N10G16    29.96R FOG
SAGINAW HB     CLOUDY    50  48  93 NW12G17   29.99R
$$
MIZ043>046-050>051-056>058-064>065-071>073-077>080-301400-
SOUTHWEST LOWER MICHIGAN

CITY           SKY/WX    TMP DP  RH WIND       PRES   REMARKS
BATTLE CREEK   CLOUDY    49  46  90 N8        30.00S
BIG RAPIDS     CLOUDY    47  47 100 N8        30.02R
COLDWATER      CLOUDY    50  48  92 N6        29.99S
FREMONT        CLOUDY    46  45  96 N7        30.03S FOG
GRAND RAPIDS   CLOUDY    49  47  93 NW8       30.02R
IONIA          CLOUDY    49  48  97 N6        30.00R
KALAMAZOO      CLOUDY    49  46  90 N9        30.01S
LUDINGTON      LGT RAIN  47  46  97 NE3       30.05F
MARSHALL       CLOUDY    48  47  96 CALM      29.98F FOG
MOUNT PLEASANT CLOUDY    49  46  88 NW3       30.00S
MUSKEGON       PTSUNNY   48  43  82 NE10      30.05R
SOUTH HAVEN    PTSUNNY   49  46  92 NE8       30.03R
$$
MIZ016>042-301400-
NORTHERN LOWER MICHIGAN

CITY           SKY/WX    TMP DP  RH WIND       PRES   REMARKS
ALPENA         CLOUDY    47  45  93 N9        30.01R
BEAVER ISLAND  CLOUDY    47  43  87 N6        30.07S
BELLAIRE       CLOUDY    46  42  88 NE6       30.05S
CADILLAC       CLOUDY    43  43  99 N10       30.01S
CHARLEVOIX     CLOUDY    47  45  92 NE8       30.08S
FRANKFORT      CLOUDY    50  44  80 N6        30.05S
GAYLORD        CLOUDY    42  41  96 N7        30.03S FOG
GRAYLING       CLOUDY    45  43  95 N6        30.03R
HARBOR SPRINGS CLOUDY    44  42  91 N3        30.06R FOG
HOUGHTON LAKE  CLOUDY    46  43  89 N5        30.02R
OSCODA         CLOUDY    46  46  97 N8        29.98S
PELLSTON       CLOUDY    44  42  93 N6        30.06R FOG
ROGERS CITY    CLOUDY    46  45  93 VRB7      30.04R
TRAVERSE CITY  CLOUDY    48  43  82 NE10      30.03S
$$
MIZ007>008-015-301400-
EASTERN UPPER MICHIGAN

CITY           SKY/WX    TMP DP  RH WIND       PRES   REMARKS
MACKINAC ISLAN CLOUDY    44  42  92 N8        30.06R
NEWBERRY       CLOUDY    42  40  91 N5        30.07S
S. S. MARIE    CLOUDY    44  38  79 NE5       30.07R
MUNISING         N/A     48  42  80 N15       30.10S
$$
MIZ004>006-011>014-085-301400-
CENTRAL UPPER MICHIGAN

CITY           SKY/WX    TMP DP  RH WIND       PRES   REMARKS
MANISTIQUE     CLOUDY    44  40  88 N8        30.08S
SAWYER-GWINN   CLOUDY    41  37  87 N10       30.11S
$$
MIZ001>003-009>011-084-301400-
WESTERN UPPER MICHIGAN

CITY           SKY/WX    TMP DP  RH WIND       PRES   REMARKS
IRON MOUNTAIN  CLOUDY    41  38  89 N8        30.11S
HOUGHTON       CLOUDY    41  35  79 NE5       30.15R
COPPER HARBOR    N/A     46  36  68 VRB5      30.16R
$$

ABBREVIATIONS USED IN REMARKS
   TC - TEMPERATURE IN CELSIUS
  WCI - WIND CHILL INDEX
   HX - HEAT INDEX
  VSB - VISIBILITY



USA.gov is the U.S. government's official web portal to all federal, state and local government web resources and services.